Flag for Netherlands

Past Weather in The Hague, Netherlands — Yesterday and Last 2 Weeks

Now
63 °F

Clear.


Feels Like: 63 °F
Forecast: 65 / 61 °F
Wind: 23 mph from Southwest

Location: Rotterdam Zestienhoven Airport

Current Time: Jul 3, 2020 at 10:54:35 pm

Latest Report: Jul 3, 2020 at 9:55 pm


Visibility: N/A

Pressure: 29.98 "Hg

Humidity: 64%

Dew Point: 50 °F

Location of The HagueLocation

Past Weather in The Hague — Graph

°F

The Hague Temperature Yesterday

Maximum temperature yesterday: 68 °F (at 11:55 am)
Minimum temperature yesterday: 61 °F (at 12:25 am)
Average temperature yesterday: 64 °F

High & Low Weather Summary for the Past Weeks

 TemperatureHumidityPressure
High88 °F (Jun 26, 4:25 pm)100% (Jun 18, 10:25 pm)30.30 "Hg (Jun 18, 10:25 pm)
Low54 °F (Jun 19, 3:55 am)33% (Jun 24, 4:25 pm)29.65 "Hg (Jul 1, 5:55 am)
Average66 °F70%29.96 "Hg
* Reported Jun 18 9:25 pm — Jul 3 9:25 pm, The Hague. Weather by CustomWeather, © 2020

Note: Actual official high and low records may vary slightly from our data, if they occured in-between our weather recording intervals... More about our weather records

The Hague Weather History for the Previous 24 Hours

Scroll right to see more
 ConditionsComfort  
Time TempWeatherWind HumidityBarometerVisibility
9:25 pm
Fri, Jul 3
63 °FClear.22 mph68%29.98 "HgN/A
8:55 pm64 °FClear.23 mph64%29.98 "HgN/A
8:25 pm64 °FPassing clouds.24 mph60%29.98 "HgN/A
7:55 pm64 °FPassing clouds.22 mph64%30.01 "HgN/A
7:25 pm66 °FPassing clouds.22 mph60%30.01 "HgN/A
6:55 pm68 °FPassing clouds.21 mph60%30.01 "HgN/A
6:25 pm66 °FClear.22 mph60%29.98 "HgN/A
5:55 pm68 °FClear.18 mph60%30.01 "HgN/A
5:25 pm66 °FPassing clouds.17 mph60%30.01 "HgN/A
4:55 pm68 °FPassing clouds.22 mph56%30.01 "HgN/A
4:25 pm68 °FPassing clouds.18 mph56%30.01 "HgN/A
3:55 pm70 °FClear.21 mph50%30.01 "HgN/A
2:55 pm70 °FPassing clouds.22 mph50%30.01 "HgN/A
2:25 pm70 °FClear.22 mph50%30.01 "HgN/A
1:55 pm70 °FPartly sunny.20 mph57%30.01 "HgN/A
1:25 pm70 °FPassing clouds.18 mph64%30.01 "HgN/A
12:55 pm66 °FBroken clouds.18 mph68%30.01 "HgN/A
12:25 pm66 °FBroken clouds.17 mph78%30.01 "HgN/A
11:55 am66 °FBroken clouds.14 mph73%30.01 "HgN/A
11:25 am66 °FScattered clouds.14 mph73%30.01 "HgN/A
10:55 am64 °FMostly cloudy.13 mph78%30.01 "HgN/A
10:25 am64 °FBroken clouds.12 mph78%30.01 "HgN/A
9:55 am64 °FBroken clouds.12 mph78%30.01 "HgN/A
9:25 am64 °FScattered clouds.10 mph83%29.98 "HgN/A
8:55 am63 °FBroken clouds.12 mph83%30.01 "HgN/A
8:25 am63 °FPassing clouds.12 mph77%29.98 "HgN/A
7:55 am61 °FScattered clouds.7 mph88%29.98 "HgN/A
7:25 am59 °FMostly cloudy.6 mph88%29.98 "HgN/A
6:55 am59 °FMore clouds than sun.5 mph88%29.98 "HgN/A
6:25 am55 °FOvercast.3 mph94%29.98 "HgN/A
5:55 am57 °FScattered clouds.5 mph88%29.98 "HgN/A
5:25 am55 °FPartly cloudy.3 mph94%29.98 "HgN/A
4:55 am57 °FMostly cloudy.3 mph94%29.95 "HgN/A
4:25 am54 °FPassing clouds.5 mph94%29.95 "HgN/A
3:55 am55 °FCool.5 mph94%29.95 "HgN/A
3:25 am57 °FCool.6 mph88%29.95 "HgN/A
2:55 am57 °FCool.6 mph94%29.95 "HgN/A
2:25 am59 °FPassing clouds.8 mph94%29.95 "HgN/A
1:55 am59 °FCool.8 mph88%29.95 "HgN/A
1:25 am61 °FCool.9 mph88%29.95 "HgN/A
12:55 am61 °FPartly cloudy.10 mph94%29.95 "HgN/A
12:25 am61 °FPartly cloudy.8 mph88%29.92 "HgN/A
11:55 pm
Thu, Jul 2
61 °FLight rain. Passing clouds.10 mph88%29.92 "HgN/A
11:25 pm61 °FPassing clouds.10 mph88%29.92 "HgN/A
10:55 pm61 °FPassing clouds.12 mph83%29.92 "HgN/A
10:25 pm61 °FPartly cloudy.12 mph83%29.92 "HgN/A
Weather by CustomWeather, © 2020

See weather overview